Flag for Germany Weather past 2 weeks in Senftenberg, Brandenburg, Germany

Now
62 °F

Overcast.


Feels Like: 62 °F
Forecast: 56 / 75 °F
Wind: 2 mph from East

Location: Cottbus

Current Time: Sep 16, 2014 at 11:46:08 PM

Latest Report: Sep 16, 2014 at 11:00 PM


Visibility: 7 mi

Pressure: 30.09 "Hg

Humidity: 81%

Dew point: 56 °F

Location of SenftenbergLocation

Historic Weather in Senftenberg — Graph

°F

Senftenberg temperature yesterday

Maximum temperature yesterday: 78 °F (at 4:00 PM)
Minimum temperature yesterday: 57 °F (at 6:00 AM)
Average temperature yesterday: 66 °F

Past Weeks' High & Low Weather Summary

 TemperatureHumidityPressure
High80 °F (Sep 6, 4:00 PM)100% (Sep 15, 3:00 AM)30.27 "Hg (Sep 15, 3:00 AM)
Low53 °F (Sep 11, 5:00 AM)46% (Sep 5, 5:00 PM)29.87 "Hg (Sep 6, 5:00 PM)
Average63 °F82%30.05 "Hg
* Reported Sep 1 10:00 PM — Sep 16 10:00 PM, Senftenberg, Weather by CustomWeather, © 2014

Note: Actual official high and low records may vary slightly from our data, if they occured in-between our weather recording intervals... More about our weather records

Advertising

Senftenberg weather history for previous 24 hours

 ConditionsComfort  
Time TempWeatherWind HumidityBarometerVisibility
10:00 PM
Sep 16
63 °FOvercast.2 mph79%30.09 "Hg7 mi
9:00 PM65 °FOvercast.2 mph74%30.08 "Hg7 mi
8:00 PM68 °FOvercast.2 mph67%30.07 "Hg9 mi
7:00 PM71 °FOvercast.2 mph59%30.06 "Hg9 mi
6:00 PM74 °FOvercast.3 mph52%30.06 "Hg9 mi
5:00 PM75 °FOvercast.5 mph51%30.05 "Hg9 mi
4:00 PM76 °FPartly sunny.5 mph51%30.06 "Hg9 mi
3:00 PM75 °FScattered clouds.5 mph55%30.08 "Hg7 mi
2:00 PM74 °FScattered clouds.5 mph56%30.08 "Hg7 mi
1:00 PM72 °FScattered clouds.5 mph64%30.09 "Hg6 mi
12:00 PM70 °FPassing clouds.5 mph67%30.10 "Hg7 mi
11:00 AM67 °FPassing clouds.3 mph71%30.11 "Hg5 mi
10:00 AM63 °FPassing clouds.3 mph78%30.11 "Hg5 mi
9:00 AM61 °FFog.2 mph83%30.11 "Hg4 mi
8:00 AM59 °FFog.2 mph88%30.10 "Hg4 mi
7:00 AM57 °FFog.3 mph91%30.09 "Hg3 mi
6:00 AM58 °FFog.2 mph90%30.09 "Hg4 mi
5:00 AM58 °FFog.2 mph90%30.09 "Hg4 mi
4:00 AM59 °FFog.2 mph88%30.09 "Hg4 mi
3:00 AM60 °FOvercast.2 mph85%30.09 "Hg5 mi
2:00 AM60 °FPassing clouds.2 mph85%30.08 "Hg5 mi
1:00 AM61 °FClear.2 mph82%30.08 "Hg6 mi
12:00 AM62 °FPassing clouds.2 mph80%30.09 "Hg7 mi
11:00 PM
Sep 15
65 °FClear.2 mph73%30.09 "Hg8 mi
Weather by CustomWeather, © 2014

See weather overviewHow to use our weather pages